�������l�o���
Date,Time,MP-1(��Sv/h),MP-2(��Sv/h),MP-3(��Sv/h),MP-4(��Sv/h),MP-5(��Sv/h),MP-6(��Sv/h),MP-7(��Sv/h),����,����(m/s),���J
2024/02/11,00:00,0.147,0.131,0.208,0.198,0.205,0.117,0.076,���k��,4.4,��
2024/02/11,00:10,0.147,0.131,0.208,0.197,0.205,0.118,0.076,���k��,2.9,��
2024/02/11,00:20,0.147,0.132,0.208,0.197,0.206,0.117,0.076,�k��,3.4,��
2024/02/11,00:30,0.146,0.131,0.208,0.197,0.205,0.118,0.076,-,CALM,��
2024/02/11,00:40,0.147,0.130,0.208,0.198,0.206,0.117,0.075,�k�k��,2.2,��
2024/02/11,00:50,0.147,0.132,0.208,0.198,0.207,0.117,0.076,�k�k��,2.7,��
2024/02/11,01:00,0.147,0.132,0.208,0.197,0.206,0.117,0.076,�k�k��,2.9,��
2024/02/11,01:10,0.147,0.130,0.208,0.198,0.205,0.118,0.076,�k��,3.4,��
2024/02/11,01:20,0.147,0.131,0.209,0.197,0.206,0.118,0.076,�k��,4.0,��
2024/02/11,01:30,0.147,0.132,0.209,0.198,0.206,0.118,0.075,���k��,2.4,��
2024/02/11,01:40,0.147,0.131,0.208,0.197,0.205,0.118,0.077,���k��,4.0,��
2024/02/11,01:50,0.148,0.131,0.208,0.198,0.205,0.117,0.076,�k�k��,2.6,��
2024/02/11,02:00,0.147,0.132,0.208,0.197,0.205,0.116,0.076,���k��,3.5,��
2024/02/11,02:10,0.146,0.131,0.207,0.197,0.206,0.118,0.076,���k��,5.2,��
2024/02/11,02:20,0.147,0.131,0.208,0.197,0.205,0.118,0.076,���k��,5.1,��
2024/02/11,02:30,0.147,0.130,0.208,0.198,0.205,0.118,0.077,���k��,11.2,��
2024/02/11,02:40,0.147,0.132,0.208,0.198,0.206,0.118,0.076,���k��,12.2,��
2024/02/11,02:50,0.147,0.131,0.210,0.197,0.206,0.117,0.075,�k��,9.8,��
2024/02/11,03:00,0.147,0.132,0.209,0.198,0.206,0.118,0.077,�k��,8.1,��
2024/02/11,03:10,0.148,0.131,0.207,0.198,0.206,0.118,0.076,�k��,7.7,��
2024/02/11,03:20,0.146,0.131,0.208,0.197,0.206,0.118,0.077,���k��,7.3,��
2024/02/11,03:30,0.147,0.131,0.209,0.198,0.205,0.118,0.075,���k��,7.0,��
2024/02/11,03:40,0.147,0.132,0.208,0.198,0.205,0.118,0.076,���k��,6.4,��
2024/02/11,03:50,0.148,0.132,0.209,0.198,0.206,0.118,0.076,���k��,7.1,��
2024/02/11,04:00,0.148,0.132,0.208,0.198,0.206,0.117,0.077,���k��,7.0,��
2024/02/11,04:10,0.147,0.132,0.209,0.198,0.205,0.118,0.076,���k��,6.5,��
2024/02/11,04:20,0.147,0.132,0.208,0.197,0.206,0.118,0.076,���k��,6.0,��
2024/02/11,04:30,0.148,0.131,0.209,0.197,0.205,0.117,0.076,���k��,5.5,��
2024/02/11,04:40,0.148,0.132,0.208,0.198,0.205,0.117,0.076,���k��,5.3,��
2024/02/11,04:50,0.147,0.131,0.208,0.197,0.206,0.117,0.076,���k��,5.3,��
2024/02/11,05:00,0.147,0.131,0.208,0.199,0.206,0.117,0.076,���k��,3.8,��
2024/02/11,05:10,0.147,0.132,0.208,0.197,0.204,0.117,0.076,���k��,3.2,��
2024/02/11,05:20,0.147,0.130,0.208,0.198,0.206,0.117,0.076,���k��,4.6,��
2024/02/11,05:30,0.148,0.131,0.209,0.197,0.206,0.118,0.076,���k��,4.5,��
2024/02/11,05:40,0.148,0.132,0.208,0.198,0.206,0.118,0.077,���k��,2.6,��
2024/02/11,05:50,0.147,0.132,0.208,0.198,0.207,0.118,0.077,���k��,2.8,��
2024/02/11,06:00,0.148,0.131,0.209,0.198,0.206,0.117,0.077,���k��,3.0,��
2024/02/11,06:10,0.147,0.130,0.207,0.198,0.206,0.117,0.076,�k��,2.7,�L
2024/02/11,06:20,0.147,0.131,0.208,0.197,0.205,0.118,0.076,���k��,2.5,��
2024/02/11,06:30,0.147,0.132,0.208,0.198,0.205,0.118,0.076,�k��,1.7,��
2024/02/11,06:40,0.147,0.132,0.208,0.198,0.205,0.118,0.076,�k��,1.9,��
2024/02/11,06:50,0.147,0.131,0.209,0.198,0.206,0.118,0.076,�k��,1.4,��
2024/02/11,07:00,0.146,0.131,0.208,0.199,0.206,0.118,0.077,�k��,1.0,��
2024/02/11,07:10,0.148,0.132,0.208,0.198,0.207,0.117,0.076,�k,0.9,��
2024/02/11,07:20,0.147,0.132,0.209,0.197,0.206,0.118,0.076,�k�k��,2.0,��
2024/02/11,07:30,0.147,0.132,0.208,0.198,0.207,0.117,0.077,�k�k��,3.4,��
2024/02/11,07:40,0.147,0.132,0.208,0.196,0.205,0.118,0.076,�k�k��,3.9,��
2024/02/11,07:50,0.148,0.131,0.208,0.197,0.207,0.118,0.077,�k�k��,3.0,��
2024/02/11,08:00,0.148,0.132,0.209,0.197,0.207,0.118,0.076,�k�k��,2.2,��
2024/02/11,08:10,0.147,0.132,0.207,0.198,0.206,0.117,0.077,�k�k��,2.9,��
2024/02/11,08:20,0.146,0.132,0.207,0.198,0.206,0.117,0.077,���k��,1.6,��
2024/02/11,08:30,0.147,0.132,0.207,0.197,0.207,0.118,0.076,�k��,1.8,��
2024/02/11,08:40,0.148,0.132,0.208,0.197,0.206,0.118,0.076,�k��,1.3,��
2024/02/11,08:50,0.147,0.131,0.208,0.199,0.205,0.119,0.077,�k�k��,1.5,��
2024/02/11,09:00,0.147,0.131,0.208,0.197,0.205,0.118,0.076,�k�k��,2.8,�L
2024/02/11,09:10,0.147,0.131,0.208,0.196,0.206,0.118,0.077,�k�k��,3.2,��
2024/02/11,09:20,0.147,0.131,0.208,0.197,0.206,0.119,0.077,�k,2.9,��
2024/02/11,09:30,0.147,0.131,0.208,0.198,0.205,0.118,0.077,�k��,2.9,��
2024/02/11,09:40,0.147,0.131,0.208,0.197,0.207,0.118,0.076,�k��,3.0,��
2024/02/11,09:50,0.148,0.131,0.208,0.198,0.206,0.117,0.076,�k��,2.6,��
2024/02/11,10:00,0.147,0.132,0.209,0.197,0.206,0.117,0.076,�k��,3.2,��
2024/02/11,10:10,0.147,0.131,0.209,0.196,0.205,0.118,0.076,�k�k��,3.0,��
2024/02/11,10:20,0.147,0.132,0.209,0.198,0.206,0.118,0.076,�k�k��,3.8,��
2024/02/11,10:30,0.147,0.131,0.208,0.197,0.205,0.116,0.076,�k�k��,3.6,��
2024/02/11,10:40,0.146,0.131,0.208,0.196,0.205,0.117,0.076,�k�k��,4.3,��
2024/02/11,10:50,0.147,0.132,0.208,0.197,0.206,0.118,0.075,�k��,3.6,��
2024/02/11,11:00,0.146,0.131,0.208,0.198,0.206,0.117,0.077,�k��,4.0,��
2024/02/11,11:10,0.147,0.131,0.209,0.197,0.206,0.117,0.076,���k��,3.8,��
2024/02/11,11:20,0.147,0.131,0.208,0.197,0.206,0.117,0.076,���k��,5.6,��
2024/02/11,11:30,0.147,0.130,0.208,0.196,0.205,0.117,0.076,���k��,4.5,��
2024/02/11,11:40,0.146,0.131,0.207,0.196,0.208,0.117,0.076,���k��,7.0,��
2024/02/11,11:50,0.146,0.130,0.207,0.197,0.205,0.116,0.076,���k��,4.7,��
2024/02/11,12:00,0.147,0.132,0.208,0.197,0.207,0.118,0.076,�k��,4.1,��
2024/02/11,12:10,0.146,0.131,0.207,0.198,0.205,0.118,0.076,�k��,4.3,��
2024/02/11,12:20,0.148,0.132,0.208,0.197,0.207,0.117,0.076,�k��,4.5,�L
2024/02/11,12:30,0.147,0.132,0.209,0.197,0.205,0.117,0.077,���k��,3.4,��
2024/02/11,12:40,0.146,0.131,0.208,0.197,0.206,0.118,0.076,�k��,2.8,��
2024/02/11,12:50,0.148,0.131,0.208,0.196,0.206,0.118,0.076,���k��,5.4,��
2024/02/11,13:00,0.148,0.131,0.207,0.197,0.206,0.117,0.075,���k��,5.7,��
2024/02/11,13:10,0.148,0.131,0.208,0.198,0.207,0.118,0.075,�k��,3.5,��
2024/02/11,13:20,0.147,0.132,0.209,0.198,0.206,0.118,0.076,�k�k��,3.9,��
2024/02/11,13:30,0.147,0.132,0.207,0.198,0.205,0.117,0.076,�k�k��,4.4,��
2024/02/11,13:40,0.147,0.132,0.208,0.198,0.207,0.117,0.076,�k��,4.2,��
2024/02/11,13:50,0.147,0.133,0.209,0.197,0.206,0.117,0.075,�k��,4.5,��
2024/02/11,14:00,0.147,0.132,0.208,0.197,0.206,0.117,0.076,���k��,5.4,��
2024/02/11,14:10,0.147,0.132,0.208,0.198,0.207,0.117,0.076,�k��,4.0,��
2024/02/11,14:20,0.147,0.131,0.209,0.197,0.205,0.116,0.077,��,5.3,��
2024/02/11,14:30,0.147,0.132,0.208,0.198,0.207,0.118,0.076,�k��,5.6,��
2024/02/11,14:40,0.147,0.131,0.209,0.197,0.205,0.118,0.076,�k��,5.9,��
2024/02/11,14:50,0.146,0.131,0.209,0.198,0.206,0.117,0.076,�k��,5.7,��
2024/02/11,15:00,0.147,0.130,0.208,0.198,0.206,0.117,0.076,���k��,4.0,��
2024/02/11,15:10,0.147,0.131,0.209,0.197,0.205,0.117,0.076,�k��,4.5,��
2024/02/11,15:20,0.147,0.131,0.209,0.198,0.207,0.118,0.076,�k��,7.0,��
2024/02/11,15:30,0.147,0.131,0.209,0.197,0.207,0.118,0.076,���k��,5.3,��
2024/02/11,15:40,0.146,0.132,0.208,0.198,0.206,0.117,0.076,���k��,5.3,��
2024/02/11,15:50,0.148,0.132,0.209,0.198,0.207,0.118,0.076,�k��,5.6,��
2024/02/11,16:00,0.148,0.132,0.209,0.199,0.206,0.117,0.076,�k��,4.5,��
2024/02/11,16:10,0.147,0.132,0.209,0.198,0.206,0.118,0.075,�k��,4.4,��
2024/02/11,16:20,0.147,0.131,0.209,0.198,0.205,0.118,0.076,�k��,3.9,��
2024/02/11,16:30,0.147,0.131,0.209,0.198,0.207,0.118,0.076,�k��,3.3,��
2024/02/11,16:40,0.147,0.131,0.208,0.199,0.206,0.119,0.076,�k�k��,3.9,��
2024/02/11,16:50,0.148,0.132,0.210,0.198,0.206,0.118,0.076,�k��,3.8,��
2024/02/11,17:00,0.147,0.131,0.209,0.198,0.208,0.118,0.075,���k��,3.5,��
2024/02/11,17:10,0.148,0.132,0.209,0.199,0.206,0.118,0.076,�k��,3.5,��
2024/02/11,17:20,0.147,0.132,0.208,0.198,0.206,0.117,0.076,���k��,4.3,��
2024/02/11,17:30,0.147,0.131,0.209,0.198,0.206,0.118,0.076,���k��,3.5,��
2024/02/11,17:40,0.147,0.133,0.208,0.199,0.206,0.118,0.076,�k��,2.9,��
2024/02/11,17:50,0.147,0.132,0.208,0.198,0.205,0.118,0.077,�k��,2.7,��
2024/02/11,18:00,0.148,0.132,0.209,0.198,0.205,0.117,0.076,�k�k��,2.0,��
2024/02/11,18:10,0.148,0.132,0.208,0.198,0.206,0.118,0.076,�k�k��,2.6,��
2024/02/11,18:20,0.147,0.132,0.208,0.198,0.205,0.118,0.076,�k��,3.2,��
2024/02/11,18:30,0.147,0.131,0.209,0.198,0.206,0.117,0.076,�k��,3.3,��
2024/02/11,18:40,0.148,0.132,0.210,0.198,0.206,0.117,0.077,�k��,2.8,��
2024/02/11,18:50,0.148,0.131,0.209,0.197,0.206,0.117,0.076,�k��,2.7,��
2024/02/11,19:00,0.147,0.131,0.208,0.198,0.206,0.118,0.076,�k��,2.6,��
2024/02/11,19:10,0.147,0.132,0.209,0.199,0.207,0.118,0.076,�k��,2.6,��
2024/02/11,19:20,0.148,0.132,0.209,0.198,0.206,0.118,0.076,�k��,3.0,��
2024/02/11,19:30,0.147,0.133,0.208,0.198,0.206,0.118,0.076,�k��,4.5,��
2024/02/11,19:40,0.149,0.132,0.209,0.199,0.205,0.118,0.076,�k��,5.4,��
2024/02/11,19:50,0.148,0.132,0.208,0.198,0.207,0.119,0.077,�k��,6.6,��
2024/02/11,20:00,0.147,0.132,0.208,0.198,0.207,0.118,0.076,�k��,8.1,��
2024/02/11,20:10,0.147,0.132,0.209,0.199,0.207,0.118,0.076,�k�k��,7.7,��
2024/02/11,20:20,0.148,0.132,0.209,0.198,0.206,0.118,0.076,�k��,5.4,��
2024/02/11,20:30,0.148,0.133,0.209,0.198,0.206,0.118,0.076,�k�k��,6.4,��
2024/02/11,20:40,0.148,0.133,0.209,0.198,0.206,0.118,0.076,�k�k��,5.8,��
2024/02/11,20:50,0.147,0.132,0.209,0.198,0.206,0.119,0.076,�k�k��,5.3,��
2024/02/11,21:00,0.148,0.132,0.209,0.199,0.207,0.119,0.076,�k��,5.8,��
2024/02/11,21:10,0.147,0.132,0.209,0.198,0.207,0.119,0.076,�k��,5.9,��
2024/02/11,21:20,0.149,0.133,0.209,0.198,0.206,0.118,0.077,�k��,5.5,��
2024/02/11,21:30,0.147,0.132,0.209,0.198,0.205,0.118,0.076,�k��,5.5,��
2024/02/11,21:40,0.148,0.132,0.208,0.198,0.205,0.118,0.077,�k��,5.0,��
2024/02/11,21:50,0.147,0.132,0.209,0.199,0.207,0.117,0.077,�k��,4.5,��
2024/02/11,22:00,0.147,0.132,0.209,0.199,0.206,0.118,0.077,�k�k��,5.0,��
2024/02/11,22:10,0.149,0.132,0.210,0.198,0.205,0.118,0.076,�k��,4.7,��
2024/02/11,22:20,0.149,0.132,0.209,0.198,0.207,0.118,0.076,�k�k��,5.2,��
2024/02/11,22:30,0.149,0.132,0.209,0.197,0.207,0.118,0.076,�k�k��,4.9,��
2024/02/11,22:40,0.148,0.132,0.209,0.199,0.206,0.118,0.077,�k�k��,3.8,��
2024/02/11,22:50,0.147,0.132,0.210,0.198,0.205,0.118,0.077,�k�k��,4.2,��
2024/02/11,23:00,0.148,0.133,0.209,0.199,0.206,0.118,0.076,�k��,2.5,��
2024/02/11,23:10,0.147,0.132,0.209,0.199,0.206,0.118,0.077,�k��,4.8,��
2024/02/11,23:20,0.147,0.133,0.209,0.198,0.206,0.118,0.077,�k��,5.6,��
2024/02/11,23:30,0.147,0.132,0.209,0.197,0.206,0.118,0.077,�k��,6.0,��
2024/02/11,23:40,0.147,0.131,0.209,0.198,0.206,0.118,0.077,�k��,5.8,��
2024/02/11,23:50,0.148,0.132,0.209,0.198,0.206,0.118,0.076,�k��,5.4,��
